AAL1120 KABQ-KTUL

Flight info

Callsign AAL1120
Flight time 1h 18m
Altitude 35000
Route FYSTA3 FTI
Aircraft B738/M-SDE2E3FGHIRWXY/LB1

Departure

Time 2026-04-25 19:21
Airport Albuquerque International Sunport (KABQ)

Arrival

Time 2026-04-25 20:40
Airport Tulsa International Airport (KTUL)
Time Latitude Longitude Altitude Speed Heading
2026-04-25 19:09 35.04689 -106.61793 5331 ft 0 kts 20°
2026-04-25 19:12 35.04689 -106.61794 5331 ft 0 kts 21°
2026-04-25 19:12 35.04685 -106.61795 5331 ft 0 kts 333°
2026-04-25 19:12 35.04677 -106.61785 5331 ft 2 kts 314°
2026-04-25 19:13 35.04668 -106.61777 5331 ft 1 kts 326°
2026-04-25 19:13 35.04663 -106.61775 5332 ft 0 kts 27°
2026-04-25 19:13 35.04659 -106.61780 5331 ft 0 kts 75°
2026-04-25 19:13 35.04658 -106.61786 5331 ft 1 kts 106°
2026-04-25 19:14 35.04659 -106.61792 5331 ft 0 kts 97°
2026-04-25 19:15 35.04658 -106.61783 5331 ft 6 kts 99°
2026-04-25 19:15 35.04634 -106.61661 5334 ft 19 kts 105°
2026-04-25 19:16 35.04588 -106.61473 5334 ft 24 kts 102°
2026-04-25 19:16 35.04581 -106.61262 5337 ft 25 kts 90°
2026-04-25 19:16 35.04579 -106.61044 5337 ft 26 kts 88°
2026-04-25 19:16 35.04580 -106.60814 5339 ft 27 kts 91°
2026-04-25 19:17 35.04577 -106.60580 5341 ft 27 kts 91°
2026-04-25 19:17 35.04575 -106.60341 5341 ft 28 kts 88°
2026-04-25 19:17 35.04573 -106.60090 5342 ft 29 kts 90°
2026-04-25 19:17 35.04585 -106.59843 5345 ft 28 kts 87°
2026-04-25 19:18 35.04584 -106.59605 5345 ft 28 kts 91°
2026-04-25 19:18 35.04583 -106.59367 5348 ft 27 kts 90°
2026-04-25 19:18 35.04581 -106.59139 5349 ft 27 kts 90°
2026-04-25 19:18 35.04579 -106.58888 5352 ft 31 kts 90°
2026-04-25 19:19 35.04576 -106.58608 5357 ft 35 kts 91°
2026-04-25 19:19 35.04576 -106.58310 5361 ft 34 kts 89°
2026-04-25 19:19 35.04574 -106.58032 5366 ft 31 kts 90°
2026-04-25 19:19 35.04573 -106.57864 5368 ft 29 kts 90°
2026-04-25 19:20 35.04565 -106.57625 5372 ft 15 kts 112°
2026-04-25 19:20 35.04478 -106.57575 5372 ft 14 kts 191°
2026-04-25 19:20 35.04411 -106.57658 5371 ft 14 kts 257°
2026-04-25 19:20 35.04408 -106.57827 5369 ft 37 kts 270°
2026-04-25 19:21 35.04413 -106.58469 5358 ft 112 kts 269°
2026-04-25 19:21 35.04402 -106.61195 5783 ft 188 kts 266°
2026-04-25 19:21 35.04337 -106.62753 6750 ft 183 kts 265°
2026-04-25 19:22 35.04279 -106.64329 7402 ft 191 kts 265°
2026-04-25 19:22 35.04255 -106.65958 7964 ft 201 kts 276°
2026-04-25 19:22 35.06354 -106.68404 8871 ft 245 kts 341°
2026-04-25 19:23 35.08091 -106.68787 9276 ft 267 kts 347°
2026-04-25 19:23 35.11929 -106.69578 10516 ft 292 kts 345°
2026-04-25 19:23 35.13979 -106.69855 11231 ft 303 kts 356°
2026-04-25 19:24 35.16059 -106.69353 11992 ft 316 kts 21°
2026-04-25 19:24 35.17847 -106.67771 12792 ft 325 kts 46°
2026-04-25 19:24 35.19809 -106.62721 14062 ft 345 kts 71°
2026-04-25 19:25 35.21316 -106.56866 14915 ft 377 kts 71°
2026-04-25 19:25 35.22125 -106.53770 15335 ft 392 kts 70°
2026-04-25 19:25 35.23024 -106.50588 15919 ft 401 kts 69°
2026-04-25 19:26 35.23991 -106.47342 16567 ft 408 kts 68°
2026-04-25 19:26 35.24971 -106.44109 17250 ft 413 kts 68°
2026-04-25 19:26 35.25977 -106.40812 17840 ft 420 kts 68°
2026-04-25 19:26 35.27021 -106.37480 18525 ft 424 kts 67°
2026-04-25 19:27 35.28106 -106.34106 19182 ft 428 kts 67°
2026-04-25 19:27 35.28836 -106.31850 19594 ft 431 kts 67°
2026-04-25 19:27 35.30322 -106.27247 20432 ft 437 kts 67°
2026-04-25 19:27 35.31429 -106.23800 21022 ft 442 kts 67°
2026-04-25 19:28 35.32550 -106.20296 21639 ft 446 kts 67°
2026-04-25 19:28 35.33683 -106.16743 22200 ft 451 kts 67°
2026-04-25 19:28 35.34817 -106.13176 22752 ft 455 kts 67°
2026-04-25 19:28 35.35968 -106.09542 23330 ft 459 kts 67°
2026-04-25 19:29 35.37119 -106.05905 23867 ft 463 kts 67°
2026-04-25 19:29 35.38294 -106.02183 24364 ft 469 kts 67°
2026-04-25 19:29 35.39467 -105.98457 24929 ft 472 kts 67°
2026-04-25 19:29 35.40640 -105.94733 25394 ft 477 kts 67°
2026-04-25 19:30 35.41846 -105.90896 25861 ft 481 kts 67°
2026-04-25 19:30 35.43030 -105.87122 26382 ft 484 kts 67°
2026-04-25 19:30 35.44252 -105.83223 26831 ft 488 kts 66°
2026-04-25 19:30 35.45465 -105.79349 27277 ft 492 kts 66°
2026-04-25 19:31 35.46687 -105.75436 27723 ft 496 kts 67°
2026-04-25 19:31 35.47935 -105.71449 28145 ft 500 kts 66°
2026-04-25 19:31 35.49175 -105.67471 28589 ft 503 kts 66°
2026-04-25 19:31 35.50426 -105.63450 28986 ft 508 kts 66°
2026-04-25 19:32 35.51678 -105.59420 29433 ft 510 kts 66°
2026-04-25 19:32 35.52945 -105.55333 29822 ft 515 kts 66°
2026-04-25 19:32 35.54210 -105.51244 30197 ft 519 kts 66°
2026-04-25 19:32 35.54637 -105.49860 30364 ft 519 kts 66°
2026-04-25 19:33 35.56769 -105.42944 31340 ft 517 kts 66°
2026-04-25 19:33 35.58034 -105.38835 31919 ft 516 kts 66°
2026-04-25 19:33 35.59297 -105.34735 32445 ft 516 kts 67°
2026-04-25 19:33 35.60563 -105.30621 32921 ft 516 kts 66°
2026-04-25 19:34 35.61840 -105.26461 33391 ft 515 kts 66°
2026-04-25 19:34 35.63090 -105.22386 33825 ft 516 kts 66°
2026-04-25 19:34 35.64314 -105.18207 34245 ft 517 kts 69°
2026-04-25 19:34 35.65370 -105.13990 34616 ft 519 kts 72°
2026-04-25 19:35 35.66231 -105.09678 34999 ft 520 kts 76°
2026-04-25 19:35 35.66886 -105.05312 35046 ft 523 kts 79°
2026-04-25 19:35 35.67889 -104.96508 35046 ft 520 kts 81°
2026-04-25 19:36 35.68838 -104.87740 35058 ft 519 kts 81°
2026-04-25 19:36 35.69800 -104.78964 35060 ft 521 kts 81°
2026-04-25 19:37 35.70791 -104.70113 35051 ft 520 kts 81°
2026-04-25 19:37 35.71782 -104.61319 35041 ft 522 kts 81°
2026-04-25 19:38 35.72771 -104.52541 35032 ft 521 kts 81°
2026-04-25 19:38 35.73756 -104.43720 35026 ft 523 kts 81°
2026-04-25 19:39 35.74733 -104.34892 35026 ft 522 kts 81°
2026-04-25 19:39 35.75713 -104.25986 35021 ft 524 kts 81°
2026-04-25 19:40 35.76680 -104.17154 35003 ft 523 kts 81°
2026-04-25 19:40 35.77642 -104.08306 34997 ft 523 kts 81°
2026-04-25 19:41 35.78598 -103.99441 34991 ft 525 kts 81°
2026-04-25 19:41 35.79237 -103.93492 34985 ft 524 kts 81°
2026-04-25 19:42 35.80490 -103.81695 34965 ft 523 kts 81°
2026-04-25 19:42 35.81425 -103.72815 34954 ft 525 kts 81°
2026-04-25 19:43 35.82357 -103.63918 34956 ft 523 kts 81°
2026-04-25 19:43 35.83284 -103.55013 34954 ft 526 kts 81°
2026-04-25 19:44 35.84199 -103.46133 34956 ft 525 kts 81°
2026-04-25 19:44 35.85107 -103.37264 34955 ft 525 kts 81°
2026-04-25 19:45 35.85562 -103.32801 34823 ft 524 kts 81°
2026-04-25 19:45 35.86015 -103.28346 34934 ft 525 kts 81°
2026-04-25 19:45 35.86916 -103.19424 34946 ft 528 kts 81°
2026-04-25 19:46 35.87815 -103.10442 34941 ft 526 kts 81°
2026-04-25 19:46 35.88701 -103.01522 34937 ft 527 kts 81°
2026-04-25 19:47 35.89579 -102.92604 34941 ft 526 kts 81°
2026-04-25 19:47 35.90450 -102.83660 34942 ft 525 kts 81°
2026-04-25 19:48 35.91313 -102.74745 34933 ft 525 kts 81°
2026-04-25 19:48 35.91750 -102.70230 35070 ft 526 kts 81°
2026-04-25 19:48 35.92178 -102.65796 34924 ft 525 kts 81°
2026-04-25 19:49 35.92750 -102.59820 34907 ft 522 kts 81°
2026-04-25 19:49 35.93875 -102.47981 34888 ft 524 kts 81°
2026-04-25 19:50 35.95134 -102.34598 34899 ft 525 kts 82°
2026-04-25 19:51 35.95961 -102.25711 34901 ft 524 kts 82°
2026-04-25 19:51 35.96784 -102.16797 34895 ft 524 kts 82°
2026-04-25 19:52 35.97599 -102.07882 34885 ft 524 kts 81°
2026-04-25 19:52 35.98401 -101.99021 34891 ft 523 kts 82°
2026-04-25 19:53 35.99198 -101.90134 34906 ft 523 kts 81°
2026-04-25 19:53 36.00001 -101.81158 34896 ft 525 kts 82°
2026-04-25 19:54 36.00785 -101.72291 34895 ft 522 kts 82°
2026-04-25 19:54 36.01562 -101.63399 34879 ft 523 kts 81°
2026-04-25 19:55 36.02336 -101.54479 34886 ft 522 kts 82°
2026-04-25 19:55 36.03106 -101.45570 34879 ft 523 kts 82°
2026-04-25 19:56 36.03867 -101.36663 34869 ft 521 kts 82°
2026-04-25 19:56 36.04618 -101.27820 34872 ft 522 kts 82°
2026-04-25 19:57 36.05367 -101.18893 34871 ft 523 kts 82°
2026-04-25 19:57 36.06107 -101.09969 34873 ft 522 kts 82°
2026-04-25 19:58 36.06838 -101.01067 34866 ft 523 kts 82°
2026-04-25 19:58 36.07565 -100.92125 34857 ft 522 kts 82°
2026-04-25 19:59 36.08284 -100.83238 34855 ft 522 kts 82°
2026-04-25 19:59 36.08996 -100.74364 34848 ft 522 kts 82°
2026-04-25 20:00 36.09700 -100.65458 34841 ft 522 kts 82°
2026-04-25 20:00 36.10400 -100.56544 34837 ft 522 kts 82°
2026-04-25 20:01 36.11448 -100.43150 34824 ft 524 kts 82°
2026-04-25 20:01 36.12135 -100.34227 34819 ft 522 kts 82°
2026-04-25 20:02 36.12814 -100.25306 34817 ft 525 kts 83°
2026-04-25 20:02 36.13490 -100.16306 34809 ft 523 kts 83°
2026-04-25 20:03 36.14153 -100.07377 34810 ft 524 kts 82°
2026-04-25 20:03 36.14809 -99.98459 34803 ft 524 kts 82°
2026-04-25 20:04 36.15464 -99.89481 34800 ft 524 kts 82°
2026-04-25 20:04 36.16107 -99.80595 34795 ft 523 kts 82°
2026-04-25 20:05 36.16748 -99.71616 34796 ft 523 kts 82°
2026-04-25 20:05 36.17383 -99.62665 34793 ft 524 kts 83°
2026-04-25 20:06 36.18013 -99.53683 34789 ft 525 kts 82°
2026-04-25 20:06 36.18630 -99.44739 34787 ft 524 kts 82°
2026-04-25 20:07 36.19245 -99.35744 34785 ft 525 kts 82°
2026-04-25 20:07 36.19854 -99.26759 34783 ft 526 kts 83°
2026-04-25 20:08 36.20453 -99.17767 34776 ft 525 kts 83°
2026-04-25 20:08 36.21047 -99.08790 34776 ft 526 kts 83°
2026-04-25 20:09 36.21638 -98.99754 34775 ft 527 kts 83°
2026-04-25 20:09 36.22220 -98.90739 34782 ft 525 kts 83°
2026-04-25 20:10 36.22791 -98.81748 34781 ft 525 kts 83°
2026-04-25 20:10 36.23353 -98.72793 34777 ft 524 kts 82°
2026-04-25 20:11 36.23916 -98.63779 34774 ft 524 kts 83°
2026-04-25 20:11 36.24474 -98.54771 34764 ft 524 kts 83°
2026-04-25 20:12 36.25021 -98.45812 34757 ft 523 kts 82°
2026-04-25 20:12 36.25383 -98.39810 34759 ft 523 kts 82°
2026-04-25 20:13 36.26097 -98.27872 34280 ft 522 kts 83°
2026-04-25 20:13 36.26360 -98.23412 33636 ft 522 kts 83°
2026-04-25 20:13 36.26625 -98.18915 32924 ft 523 kts 83°
2026-04-25 20:14 36.26886 -98.14440 32435 ft 517 kts 84°
2026-04-25 20:14 36.27138 -98.10046 31893 ft 514 kts 83°
2026-04-25 20:14 36.27388 -98.05672 31327 ft 511 kts 84°
2026-04-25 20:14 36.27636 -98.01317 30763 ft 508 kts 84°
2026-04-25 20:15 36.27881 -97.96970 30178 ft 505 kts 84°
2026-04-25 20:15 36.28124 -97.92660 29599 ft 502 kts 84°
2026-04-25 20:15 36.28364 -97.88350 29021 ft 498 kts 84°
2026-04-25 20:15 36.28599 -97.84102 28444 ft 495 kts 84°
2026-04-25 20:16 36.28831 -97.79882 27873 ft 492 kts 84°
2026-04-25 20:16 36.29034 -97.76194 27370 ft 489 kts 84°
2026-04-25 20:16 36.29247 -97.72298 26834 ft 486 kts 84°
2026-04-25 20:16 36.29473 -97.68131 26255 ft 483 kts 84°
2026-04-25 20:17 36.29696 -97.64008 25680 ft 480 kts 85°
2026-04-25 20:17 36.29915 -97.59910 25105 ft 476 kts 85°
2026-04-25 20:17 36.30133 -97.55815 24531 ft 473 kts 85°
2026-04-25 20:17 36.30345 -97.51797 23949 ft 470 kts 85°
2026-04-25 20:18 36.30556 -97.47783 23383 ft 466 kts 85°
2026-04-25 20:18 36.30763 -97.43817 22839 ft 462 kts 85°
2026-04-25 20:18 36.30969 -97.39880 22258 ft 459 kts 85°
2026-04-25 20:18 36.31172 -97.35947 21697 ft 455 kts 86°
2026-04-25 20:19 36.31372 -97.32060 21142 ft 451 kts 86°
2026-04-25 20:19 36.31568 -97.28233 20592 ft 447 kts 87°
2026-04-25 20:19 36.31764 -97.24393 20030 ft 442 kts 87°
2026-04-25 20:19 36.31954 -97.20647 19472 ft 438 kts 87°
2026-04-25 20:20 36.32143 -97.16904 18939 ft 434 kts 87°
2026-04-25 20:20 36.32327 -97.13219 18572 ft 424 kts 87°
2026-04-25 20:20 36.32505 -97.09655 18430 ft 408 kts 88°
2026-04-25 20:20 36.32673 -97.06229 18358 ft 392 kts 87°
2026-04-25 20:21 36.32835 -97.02914 18235 ft 378 kts 88°
2026-04-25 20:21 36.32988 -96.99738 18107 ft 365 kts 88°
2026-04-25 20:21 36.33137 -96.96653 17969 ft 354 kts 88°
2026-04-25 20:21 36.33283 -96.93553 17856 ft 370 kts 88°
2026-04-25 20:22 36.33432 -96.90350 17590 ft 379 kts 88°
2026-04-25 20:22 36.33484 -96.89236 17386 ft 381 kts 88°
2026-04-25 20:22 36.33740 -96.83815 16489 ft 379 kts 88°
2026-04-25 20:22 36.33893 -96.80579 15986 ft 377 kts 88°
2026-04-25 20:23 36.34047 -96.77324 15487 ft 374 kts 88°
2026-04-25 20:23 36.34197 -96.74125 14999 ft 371 kts 89°
2026-04-25 20:23 36.34342 -96.70996 14637 ft 364 kts 89°
2026-04-25 20:23 36.34487 -96.67863 14187 ft 360 kts 89°
2026-04-25 20:24 36.34627 -96.64806 13731 ft 357 kts 89°
2026-04-25 20:24 36.34765 -96.61752 13257 ft 355 kts 89°
2026-04-25 20:24 36.34900 -96.58729 12773 ft 352 kts 89°
2026-04-25 20:24 36.35032 -96.55768 12322 ft 338 kts 89°
2026-04-25 20:25 36.35162 -96.52895 11891 ft 325 kts 89°
2026-04-25 20:25 36.35284 -96.50160 11477 ft 314 kts 89°
2026-04-25 20:25 36.35401 -96.47461 11046 ft 314 kts 90°
2026-04-25 20:25 36.35514 -96.44793 10686 ft 307 kts 90°
2026-04-25 20:26 36.35627 -96.42214 10434 ft 291 kts 90°
2026-04-25 20:26 36.35734 -96.39812 10370 ft 273 kts 90°
2026-04-25 20:26 36.35836 -96.37475 9989 ft 268 kts 90°
2026-04-25 20:26 36.35931 -96.35186 9505 ft 269 kts 90°
2026-04-25 20:27 36.36025 -96.32873 9039 ft 267 kts 91°
2026-04-25 20:27 36.36133 -96.30598 8493 ft 264 kts 88°
2026-04-25 20:27 36.36652 -96.28427 7916 ft 265 kts 67°
2026-04-25 20:27 36.37528 -96.26457 7473 ft 257 kts 63°
2026-04-25 20:28 36.38408 -96.24635 7204 ft 242 kts 62°
2026-04-25 20:28 36.39261 -96.22896 6992 ft 224 kts 62°
2026-04-25 20:28 36.40058 -96.21298 6721 ft 212 kts 62°
2026-04-25 20:28 36.40826 -96.19769 6332 ft 209 kts 62°
2026-04-25 20:29 36.41580 -96.18286 5982 ft 199 kts 62°
2026-04-25 20:29 36.42330 -96.16831 5422 ft 201 kts 62°
2026-04-25 20:29 36.43071 -96.15382 4884 ft 201 kts 62°
2026-04-25 20:29 36.43812 -96.13920 4388 ft 197 kts 62°
2026-04-25 20:30 36.44515 -96.12496 3946 ft 193 kts 65°
2026-04-25 20:30 36.44936 -96.10931 3491 ft 188 kts 82°
2026-04-25 20:30 36.45181 -96.09355 3082 ft 186 kts 82°
2026-04-25 20:30 36.45343 -96.07819 2938 ft 177 kts 96°
2026-04-25 20:31 36.45168 -96.06267 2963 ft 182 kts 103°
2026-04-25 20:31 36.44904 -96.04738 2964 ft 181 kts 105°
2026-04-25 20:31 36.44610 -96.03217 2965 ft 180 kts 106°
2026-04-25 20:31 36.44323 -96.01732 2947 ft 178 kts 107°
2026-04-25 20:32 36.43996 -96.00246 2890 ft 177 kts 106°
2026-04-25 20:32 36.43720 -95.98749 2835 ft 176 kts 104°
2026-04-25 20:32 36.43454 -95.97240 2887 ft 186 kts 104°
2026-04-25 20:32 36.43173 -95.95694 2981 ft 180 kts 105°
2026-04-25 20:33 36.42903 -95.94190 2979 ft 176 kts 105°
2026-04-25 20:33 36.42519 -95.92796 3017 ft 163 kts 117°
2026-04-25 20:33 36.41956 -95.91627 3064 ft 150 kts 129°
2026-04-25 20:33 36.41742 -95.91299 3090 ft 146 kts 132°
2026-04-25 20:34 36.40501 -95.90019 2998 ft 144 kts 142°
2026-04-25 20:34 36.39757 -95.89143 2889 ft 145 kts 138°
2026-04-25 20:34 36.39024 -95.88330 2905 ft 141 kts 139°
2026-04-25 20:34 36.38199 -95.87655 2846 ft 142 kts 160°
2026-04-25 20:35 36.37229 -95.87533 2818 ft 142 kts 178°
2026-04-25 20:35 36.36266 -95.87558 2873 ft 134 kts 174°
2026-04-25 20:35 36.35368 -95.87460 2921 ft 125 kts 169°
2026-04-25 20:35 36.34472 -95.87324 2841 ft 128 kts 173°
2026-04-25 20:36 36.33597 -95.87342 2845 ft 126 kts 178°
2026-04-25 20:36 36.32695 -95.87369 2739 ft 130 kts 179°
2026-04-25 20:36 36.31795 -95.87421 2600 ft 134 kts 180°
2026-04-25 20:36 36.30831 -95.87478 2353 ft 135 kts 180°
2026-04-25 20:37 36.29906 -95.87624 2206 ft 132 kts 184°
2026-04-25 20:37 36.28990 -95.87707 2026 ft 131 kts 177°
2026-04-25 20:37 36.28084 -95.87714 1862 ft 130 kts 179°
2026-04-25 20:37 36.27172 -95.87781 1678 ft 130 kts 179°
2026-04-25 20:38 36.26278 -95.87852 1478 ft 130 kts 179°
2026-04-25 20:38 36.25376 -95.87901 1330 ft 125 kts 178°
2026-04-25 20:38 36.24500 -95.87916 1147 ft 125 kts 176°
2026-04-25 20:38 36.23645 -95.88000 1030 ft 122 kts 181°
2026-04-25 20:39 36.22794 -95.88040 876 ft 124 kts 178°
2026-04-25 20:39 36.21943 -95.88110 753 ft 123 kts 180°
2026-04-25 20:39 36.21096 -95.88155 628 ft 118 kts 178°
2026-04-25 20:39 36.20837 -95.88160 632 ft 100 kts 184°
2026-04-25 20:40 36.20136 -95.88213 647 ft 49 kts 178°
2026-04-25 20:40 36.19825 -95.88237 651 ft 42 kts 182°
2026-04-25 20:40 36.19551 -95.88254 652 ft 36 kts 183°
2026-04-25 20:40 36.19333 -95.88277 653 ft 24 kts 191°
2026-04-25 20:41 36.19198 -95.88358 654 ft 19 kts 212°
2026-04-25 20:41 36.19131 -95.88424 653 ft 7 kts 232°
2026-04-25 20:41 36.19123 -95.88463 653 ft 3 kts 291°
2026-04-25 20:41 36.19125 -95.88487 653 ft 2 kts 239°
2026-04-25 20:42 36.19117 -95.88501 654 ft 1 kts 232°
2026-04-25 20:42 36.19105 -95.88519 654 ft 3 kts 232°
2026-04-25 20:42 36.19092 -95.88538 654 ft 2 kts 223°
2026-04-25 20:42 36.19071 -95.88557 655 ft 4 kts 217°
2026-04-25 20:43 36.19049 -95.88578 655 ft 4 kts 217°
2026-04-25 20:43 36.19027 -95.88599 656 ft 3 kts 220°
2026-04-25 20:43 36.19013 -95.88622 656 ft 3 kts 244°
2026-04-25 20:43 36.19014 -95.88647 656 ft 2 kts 300°
2026-04-25 20:44 36.19025 -95.88660 657 ft 1 kts 316°
2026-04-25 20:44 36.19034 -95.88670 657 ft 1 kts 315°
2026-04-25 20:44 36.19044 -95.88682 657 ft 2 kts 319°
2026-04-25 20:44 36.19047 -95.88686 657 ft 0 kts 319°